Regional Weather Roundup
Issued by NWS

Home | Current Version | Previous Version | Text Only | Print | Product List | Glossary Off
Versions: 1 2 3 4 5 6 7 8 9 10 11 12 13 14 15 16 17 18 19 20 21 22 23 24 25 26 27 28 29 30 31 32 33 34 35 36 37 38 39 40 41 42 43 44 45 46 47 48 49 50

000
ASUS43 KBIS 220410
RWRND

NORTH DAKOTA REGIONAL WEATHER ROUNDUP
NATIONAL WEATHER SERVICE BISMARCK ND
1100 PM CDT MON JUL 21 2014

NOTE: "FAIR" INDICATES FEW OR NO CLOUDS BELOW 12,000 FEET WITH NO
SIGNIFICANT WEATHER AND/OR OBSTRUCTIONS TO VISIBILITY.


NDZ001>003-009>011-017-220500-
NORTHWEST NORTH DAKOTA

CITY           SKY/WX    TMP DP  RH WIND       PRES   REMARKS
WILLISTON      CLEAR     63  56  78 N3        29.99R
MINOT          CLOUDY    64  61  90 NW6       29.96R
MINOT AFB      CLOUDY    64  64 100 NW7       29.96R
$$

NDZ018>021-031>035-040>046-220500-
SOUTHWEST NORTH DAKOTA

CITY           SKY/WX    TMP DP  RH WIND       PRES   REMARKS
BISMARCK       CLOUDY    66  62  87 NW10      29.94R
DICKINSON      CLEAR     63  60  90 N8        30.00R
GARRISON         N/A     65  64  97 NW5       29.97R
HETTINGER ARPT CLEAR     64  61  90 N6        30.01R
$$

NDZ004>008-012>016-024-026-027-054-220500-
NORTHEAST NORTH DAKOTA

CITY           SKY/WX    TMP DP  RH WIND       PRES   REMARKS
GRAND FORKS    RAIN      67  65  93 N35G55    29.63F FOG
GRND FRKS AFB  CLOUDY    66  66 100 N17G35    29.74R
DEVILS LAKE    CLOUDY    66  61  82 N7        29.85R
$$

NDZ022-023-025-028>030-036>039-047>053-220500-
SOUTHEAST NORTH DAKOTA

CITY           SKY/WX    TMP DP  RH WIND       PRES   REMARKS
FARGO          LGT RAIN  69  67  93 SW7       29.74F
JAMESTOWN      LGT RAIN  68  63  84 N17G30    29.78R
$$



USA.gov is the U.S. government's official web portal to all federal, state and local government web resources and services.